Regional Weather Roundup
Issued by NWS

Home | Current Version | Previous Version | Graphics & Text | Print | Product List | Glossary On
Versions: 1 2 3 4 5 6 7 8 9 10 11 12 13 14 15 16 17 18 19 20 21 22 23 24 25 26 27 28 29 30 31 32 33 34 35 36 37 38 39 40 41 42 43 44 45 46 47 48 49 50
000
ASUS45 KABQ 020101
RWRNM
NEW MEXICO REGIONAL WEATHER ROUNDUP
NATIONAL WEATHER SERVICE ALBUQUERQUE NM
700 PM MDT SAT AUG 01 2015

NOTE: "FAIR" MEANS FEW OR NO CLOUDS BELOW 12,000 FEET AGL WITH NO
       SIGNIFICANT WEATHER OR OBSTRUCTIONS TO VISION.

      THIS PRODUCT IS RELEASED AS TWO VERSIONS.  ONE VERSION NEAR
      THE TOP OF THE HOUR CONTAINING PRELIMINARY DATA FROM ALBUQUERQUE
      AND OTHER STATIONS.  A FINAL VERSION WITH ADDITIONAL DATA IS
      ISSUED ABOUT 10 MINUTES AFTER THE HOUR.

NMZ501-503-504-510>518-020200-
NORTHWEST PLATEAU/NORTHCENTRAL MOUNTAINS

CITY           SKY/WX    TMP DP  RH WIND       PRES   REMARKS
FARMINGTON     SUNNY     80  53  39 SE10      30.14S
SANTA FE       PTSUNNY   72  55  55 N20G26    30.22S
TAOS           CLOUDY    61  48  63 S10       30.32S
ANGEL FIRE     RAIN      56  54  93 S7        30.42S

$$
NMZ402-403-502-505>509-020200-
WESTCENTRAL MOUNTAINS/SOUTHWEST MOUNTAINS

CITY           SKY/WX    TMP DP  RH WIND       PRES   REMARKS
GALLUP         PTSUNNY   71  58  63 NE7       30.23F
SILVER CITY      N/A     73  59  60 N18G24    30.17R

$$
NMZ407-409-411-412-020200-
SOUTHERN DESERTS

CITY           SKY/WX    TMP DP  RH WIND       PRES   REMARKS
DEMING         PTSUNNY   89  52  28 W12G21    30.02S
HOLLOMAN AFB   SUNNY     93  47  20 SW7       29.99F
ALAMOGORDO     MOSUNNY   91  48  22 W7        30.02S
T OR C         PTSUNNY   86  51  29 W8        30.06F

$$
NMZ519>523-020200-
CENTRAL VALLEYS/CENTRAL HIGHLANDS

CITY           SKY/WX    TMP DP  RH WIND       PRES   REMARKS
ALBUQUERQUE    PTSUNNY   80  53  39 N18G25    30.12R
DOUBLE EAGLE   PTSUNNY   72  59  64 NW15      30.17F
MORIARTY ARPT    N/A     74  55  49 N8        30.20S
CLINES CORNERS PTSUNNY   75  54  47 N16G23    30.25S
BELEN          FAIR      86  47  26 SW8       30.09S
SOCORRO        NOT AVBL

$$
NMZ524>526-539-540-020200-
SOUTHCENTRAL MOUNTAINS

CITY           SKY/WX    TMP DP  RH WIND       PRES   REMARKS
RUIDOSO          N/A    N/A N/A N/A MISG        N/A

$$
NMZ527>531-020200-
NORTHEAST HIGHLANDS/NORTHEAST PLAINS

CITY           SKY/WX    TMP DP  RH WIND       PRES   REMARKS
LAS VEGAS      PTSUNNY   68  54  60 N10       30.27F
RATON          CLOUDY    63  55  75 N20G26    30.21F
CLAYTON        PTSUNNY   81  64  56 S10       30.10R

$$
NMZ532>537-020200-
EASTCENTRAL PLAINS

CITY           SKY/WX    TMP DP  RH WIND       PRES   REMARKS
TUCUMCARI      CLOUDY    74  62  66 NW13      30.04S
CANNON AFB     CLEAR     82  63  52 S6        30.05F
CLOVIS AIRPORT PTCLDY    82  64  54 S8        30.06F

$$
NMZ028-029-538-020200-
SOUTHEAST PLAINS

CITY           SKY/WX    TMP DP  RH WIND       PRES   REMARKS
ROSWELL        MOSUNNY   92  53  26 W7        29.99F
ARTESIA        MOSUNNY   91  55  29 CALM      29.99S
CARLSBAD       LGT RAIN  89  60  37 SW24      29.96R
HOBBS          MOCLDY    72  68  88 NW12      30.06S


$$



USA.gov is the U.S. government's official web portal to all federal, state and local government web resources and services.